DECAYED

ELECTRON R/B, 64056 (Decayed)

Orbit data source: Space-Track

ELECTRON R/B, 64056 was space debris in LEO originally from a launch on Sat, 17 May 2025 UTC launched from the Rocket Lab Launch Complex (RLLC). Debris objects in space refer to the collection of defunct objects orbiting the Earth. Examples of debris include non-operational satellites, rocket bodies, and fragments generated from explosions, collisions, or faulty payload assembly.

Not visible in the next 10 days
Identifier
64056, 2025-104B
Orbit
Decayed
Country
Flag of USUS
Related business
Manufacturer
Rocket Lab
Mission
Decayed spacecraft
Bus & Motor
ELECTRON ST2, Unknown motor
Mass
250 kg wet, ~250 kg dry
Launch date (UTC)
2025-05-17 (1 year ago)
Launch vehicle
Unknown
Launch site
Rocket Lab Launch Complex (RLLC)
Object type
Payload
Rocket body
Debris
Shape & HBR
Cyl, 1.2 m
Radar Cross Section
2.827 m², Large (>1 m²)

Expand to show TLE details & history
Last TLE update: 1 year ago

TLE from 1 year ago
0 ELECTRON R/B
1 64056U 25104B   25177.00228279  .09650386  79440-5  11816-2 0  9990
2 64056  41.9296  49.7578 0033698 189.0706 313.4381 16.33134775  6249
Epoch: 2025-06-26T00:03Z
TLE epoch observation values (Epoch: 2025-06-26T00:03:17.233Z)
Latitude
24.25205°
Longitude
-75.3532°
Altitude
168.577 km
Speed
7.818 km/s
True Right ascension
13h 19m 22s
True Declination
24° 06' 43"
Sunlit
Object was in daylight at epoch
Visualization orbit readout
Latitude
Unknown
Longitude
Unknown
Altitude
Unknown
Speed
Unknown
Apparent Right ascension
Unknown
Apparent Declination
Unknown
Sunlit
N/A
Visualization observer readout
Local Sidereal Time
07:19:46
Azimuth
Unknown
Elevation
Unknown
Doppler factor
Unknown
Orbital elements
Apogee altitude
208.471 km
Perigee altitude
164.229 km
Semi-major axis
6,564.487 km
Eccentricity
0.00337
Inclination
41.9296°
RAAN
49.7578°
Arg. of periapsis
189.0706°
True anomaly
313.1569°
Mean anomaly
313.4381°
Eccentric anomaly
313.29758°
Mean motion
4.08077 °/min
Orbital period
88.22 mins
BSTAR
0.0011816
Loading maneuver chart data...
Computing Atmospheric mass density...
Loading historical data...
Loading historical data...
Loading historical data...
Loading historical data...
Loading historical data...
Loading historical data...
Loading historical data...
Other satellites on launch #104 in the year 2025 (2025-05-17 UTC)

Documentation

Showing up to 5 results
|